Location: Oberkirch
(48.5323°N, 8.0787°E)
Time: 21:44:51
(UTC+00:00)

DIWATA 2B (PO-101) - Visible Passes

Search period start: 16 March 2026 00:00
Search period end: 26 March 2026 00:00
Orbit: 558 x 576 km, 98.1° (Epoch: 16 March)

Date Brightness Start Highest point End Pass type
(mag) Time Alt. Az. Time Alt. Az. Time Alt. Az.
16 Mar ? 04:47:09 10° SSE 04:51:08 63° ENE 04:55:08 10° N visible
16 Mar ? 19:33:31 10° NNW 19:36:01 16° WNW 19:38:31 10° W visible
17 Mar ? 04:48:02 10° SSE 04:52:01 64° ENE 04:56:01 10° N visible
17 Mar ? 19:34:25 10° NNW 19:36:53 16° WNW 19:39:22 10° W visible
18 Mar ? 04:48:55 10° SSE 04:52:54 65° ENE 04:56:54 10° N visible
18 Mar ? 19:35:19 10° NNW 19:37:45 16° WNW 19:40:12 10° W visible
19 Mar ? 04:49:47 10° SSE 04:53:47 67° ENE 04:57:46 10° N visible
19 Mar ? 19:36:13 10° NNW 19:38:37 16° WNW 19:41:02 10° W visible
20 Mar ? 04:50:39 10° SSE 04:54:38 68° ENE 04:58:38 10° N visible
20 Mar ? 19:37:05 10° NNW 19:39:29 15° WNW 19:41:52 10° W visible
21 Mar ? 04:51:31 10° SSE 04:55:30 69° ENE 04:59:31 10° N visible
21 Mar ? 19:37:59 10° NNW 19:40:20 15° WNW 19:42:41 10° W visible
22 Mar ? 04:52:22 10° SSE 04:56:22 70° ENE 05:00:22 10° N visible
22 Mar ? 19:38:52 10° NNW 19:41:11 15° WNW 19:43:30 10° W visible
23 Mar ? 19:39:45 10° NNW 19:42:02 15° WNW 19:44:19 10° W visible
24 Mar ? 19:40:37 10° NNW 19:42:52 15° WNW 19:45:08 10° W visible
25 Mar ? 19:41:29 10° NNW 19:43:43 15° WNW 19:45:56 10° W visible
